This is the latest recevied weather packets stored in our database for station/object W4FXD. If no packets are shown the sender has not sent any weather packets the latest 10 day(s).
| Time | Temp. | Humidity | Pressure | Rain* | Wind** | Luminosity | Snow |
|---|---|---|---|---|---|---|---|
| 1777583505 | 18.33° C | 48% | 1013.9 hPa | 0 mm | - | 66 W/m² | - |
| 1777583199 | 18.33° C | 46% | 1014 hPa | 0 mm | - | 75 W/m² | - |
| 1777582895 | 18.33° C | 47% | 1013.6 hPa | 0 mm | - | 75 W/m² | - |
| 1777582592 | 17.78° C | 46% | 1013.7 hPa | 0 mm | - | 81 W/m² | - |
| 1777582287 | 17.78° C | 48% | 1013.6 hPa | 0 mm | - | 121 W/m² | - |
| 1777581985 | 17.78° C | 49% | 1013.9 hPa | 0 mm | - | 122 W/m² | - |
| 1777581681 | 18.33° C | 48% | 1013.8 hPa | 0 mm | - | 135 W/m² | - |
| 1777581381 | 18.33° C | 47% | 1014 hPa | 0 mm | - | 135 W/m² | - |
| 1777581081 | 17.78° C | 47% | 1014 hPa | 0 mm | - | 131 W/m² | - |
| 1777580780 | 17.78° C | 48% | 1014.2 hPa | 0 mm | - | 124 W/m² | - |
| 1777580476 | 17.78° C | 48% | 1014.1 hPa | 0 mm | - | 125 W/m² | - |
| 1777580171 | 17.78° C | 49% | 1014.4 hPa | 0 mm | - | 138 W/m² | - |
| 1777579869 | 18.33° C | 47% | 1014.5 hPa | 0 mm | - | 145 W/m² | - |
| 1777579569 | 18.33° C | 49% | 1014.4 hPa | 0 mm | - | 147 W/m² | - |
| 1777579268 | 18.33° C | 54% | 1014.3 hPa | 0 mm | - | 155 W/m² | - |
| 1777578964 | 18.33° C | 48% | 1014.5 hPa | 0 mm | - | 180 W/m² | - |
| 1777578659 | 17.78° C | 48% | 1014.5 hPa | 0 mm | - | 193 W/m² | - |
| 1777578358 | 18.33° C | 50% | 1014.5 hPa | 0 mm | - | 197 W/m² | - |
| 1777578055 | 17.78° C | 50% | 1014.5 hPa | 0 mm | - | 219 W/m² | - |
| 1777577749 | 18.33° C | 51% | 1014.5 hPa | 0 mm | - | 209 W/m² | - |
| 1777577446 | 17.78° C | 49% | 1014.3 hPa | 0 mm | - | 214 W/m² | - |
| 1777577144 | 17.78° C | 50% | 1014.6 hPa | 0 mm | - | 207 W/m² | - |
| 1777576840 | 18.33° C | 52% | 1014.3 hPa | 0 mm | - | 223 W/m² | - |
| 1777576538 | 17.78° C | 50% | 1014.4 hPa | 0 mm | - | 234 W/m² | - |
| 1777576235 | 17.78° C | 48% | 1014.4 hPa | 0 mm | - | 188 W/m² | - |
* Rain latest hour (hover to see other rain measurements)
** Current wind speed in m/s (hover to see current wind gust speed)